Location: Asheville, NC
(35.6000°N, 82.5500°W)
Time: 20:56:44
(UTC-04:00)

AO-7 - Visible Passes

Search period start: 17 July 2018 00:00
Search period end: 27 July 2018 00:00
Orbit: 1440 x 1458 km, 101.7° (Epoch: 17 July)

Date Brightness Start Highest point End Pass type
(mag) Time Alt. Az. Time Alt. Az. Time Alt. Az.
17 Jul ? 04:28:04 10° NNE 04:36:02 46° ESE 04:43:54 10° S visible
18 Jul ? 03:30:31 10° NE 03:35:30 17° E 03:40:26 10° SE visible
18 Jul ? 05:20:38 10° NNE 05:29:02 85° WNW 05:37:23 10° SSW visible
19 Jul ? 04:21:13 10° NNE 04:29:00 41° E 04:36:41 10° SSE visible
20 Jul ? 03:24:11 10° ENE 03:28:24 15° E 03:32:35 10° ESE visible
20 Jul ? 05:13:39 10° NNE 05:22:04 87° ESE 05:30:24 10° SSW visible
21 Jul ? 04:14:23 10° NE 04:21:57 37° E 04:29:26 10° SSE visible
22 Jul ? 03:18:06 10° ENE 03:21:18 12° E 03:24:29 10° ESE visible
22 Jul ? 05:06:40 10° NNE 05:15:05 80° ESE 05:23:25 10° SSW visible
23 Jul ? 04:07:36 10° NE 04:14:55 33° E 04:22:09 10° SSE visible
23 Jul ? 05:59:50 10° N 06:07:47 50° WNW 06:15:42 10° SW visible
24 Jul ? 03:12:44 10° E 03:14:11 10° E 03:15:38 10° E visible
24 Jul ? 04:59:43 10° NNE 05:08:06 73° ESE 05:16:24 10° S visible
25 Jul ? 04:00:49 10° NE 04:07:52 29° E 04:14:49 10° SSE visible
25 Jul ? 05:52:46 10° N 06:00:51 55° WNW 06:08:53 10° SW visible
26 Jul ? 04:52:46 10° NNE 05:01:06 66° ESE 05:09:20 10° S visible
